When you browse on this site, cookies collect data to enhance your experience and personalize the content and advertising you see.
Visit our Privacy Policy to learn more. By continuing to use the site, you agree to this use of cookies and data.
  • en Suisse
  • Liste des pays
  • À 7 jours
  • Température de l'eau
  • Carte satellitaire
  • Carte météo
  • Widgets météo
  • user-avatar
    Se connecter

    Météo par heure à Shuvayka

    Ce jour, 16 Juin, Dimanche

    Heure Température Précipitation Vent Pression Humidité
    00:00 +15°C° 0 mm 1 m/s 740 mmHg 89%
    01:00 +13°C° 0 mm 0 m/s 740 mmHg 90%
    02:00 +13°C° 0 mm 0 m/s 741 mmHg 91%
    03:00 +12°C° 0 mm 0 m/s 741 mmHg 92%
    04:00 +13°C° 0 mm 0 m/s 741 mmHg 91%
    05:00 +15°C° 0 mm 1 m/s 741 mmHg 91%
    06:00 +15°C° 0 mm 1 m/s 740 mmHg 90%
    07:00 +18°C° 0.2 mm 1 m/s 741 mmHg 87%
    08:00 +18°C° 0.2 mm 2 m/s 741 mmHg 84%
    09:00 +19°C° 0.2 mm 2 m/s 741 mmHg 80%
    10:00 +20°C° 0.4 mm 2 m/s 741 mmHg 76%
    11:00 +21°C° 0.4 mm 3 m/s 741 mmHg 71%
    12:00 +21°C° 0.4 mm 3 m/s 741 mmHg 66%
    13:00 +22°C° 0.1 mm 3 m/s 741 mmHg 66%
    14:00 +22°C° 0.1 mm 3 m/s 741 mmHg 65%
    15:00 +22°C° 0.1 mm 3 m/s 741 mmHg 64%
    16:00 +22°C° 0 mm 3 m/s 741 mmHg 65%
    17:00 +23°C° 0 mm 2 m/s 741 mmHg 66%
    18:00 +23°C° 0 mm 2 m/s 741 mmHg 68%
    19:00 +22°C° 0.1 mm 1 m/s 741 mmHg 73%
    20:00 +20°C° 0.1 mm 1 m/s 741 mmHg 77%
    21:00 +19°C° 0.1 mm 1 m/s 741 mmHg 82%
    22:00 +16°C° 0 mm 0 m/s 741 mmHg 83%
    23:00 +15°C° 0 mm 0 m/s 741 mmHg 85%

    Demain, 17 Juin, Lundi

    Heure Température Précipitation Vent Pression Humidité
    00:00 +14°C° 0 mm 0 m/s 741 mmHg 86%
    01:00 +14°C° 0 mm 0 m/s 741 mmHg 86%
    02:00 +14°C° 0 mm 0 m/s 742 mmHg 87%
    03:00 +13°C° 0 mm 0 m/s 742 mmHg 87%
    04:00 +15°C° 0 mm 1 m/s 742 mmHg 87%
    05:00 +16°C° 0 mm 1 m/s 742 mmHg 86%
    06:00 +18°C° 0 mm 1 m/s 742 mmHg 86%
    07:00 +19°C° 0 mm 1 m/s 742 mmHg 81%
    08:00 +20°C° 0 mm 1 m/s 742 mmHg 76%
    09:00 +22°C° 0 mm 1 m/s 742 mmHg 72%
    10:00 +23°C° 0.1 mm 2 m/s 742 mmHg 68%
    11:00 +23°C° 0.1 mm 2 m/s 742 mmHg 64%
    12:00 +24°C° 0.1 mm 3 m/s 742 mmHg 61%
    13:00 +24°C° 0 mm 3 m/s 742 mmHg 61%
    14:00 +25°C° 0 mm 3 m/s 742 mmHg 62%
    15:00 +25°C° 0 mm 4 m/s 741 mmHg 62%
    16:00 +24°C° 0 mm 3 m/s 741 mmHg 65%
    17:00 +24°C° 0 mm 3 m/s 741 mmHg 67%
    18:00 +22°C° 0 mm 3 m/s 741 mmHg 70%
    19:00 +21°C° 0 mm 2 m/s 741 mmHg 72%
    20:00 +20°C° 0 mm 2 m/s 741 mmHg 74%
    21:00 +19°C° 0 mm 2 m/s 741 mmHg 76%
    22:00 +20°C° 0 mm 1 m/s 741 mmHg 75%
    23:00 +19°C° 0 mm 1 m/s 741 mmHg 75%

    Après-demain, 18 Juin, Mardi

    Heure Température Précipitation Vent Pression Humidité
    00:00 +19°C° 0 mm 1 m/s 741 mmHg 74%
    01:00 +19°C° 0 mm 1 m/s 741 mmHg 75%
    02:00 +19°C° 0 mm 1 m/s 741 mmHg 75%
    03:00 +19°C° 0 mm 1 m/s 741 mmHg 76%
    04:00 +19°C° 0 mm 1 m/s 741 mmHg 78%
    05:00 +19°C° 0 mm 1 m/s 741 mmHg 80%
    06:00 +19°C° 0 mm 1 m/s 741 mmHg 83%
    07:00 +20°C° 0.2 mm 1 m/s 741 mmHg 83%
    08:00 +20°C° 0.2 mm 1 m/s 741 mmHg 84%
    09:00 +19°C° 0.2 mm 2 m/s 741 mmHg 85%
    10:00 +20°C° 0.2 mm 2 m/s 741 mmHg 80%
    11:00 +21°C° 0.2 mm 2 m/s 741 mmHg 76%
    12:00 +24°C° 0.2 mm 2 m/s 741 mmHg 72%
    13:00 +24°C° 0.3 mm 2 m/s 741 mmHg 70%
    14:00 +25°C° 0.3 mm 3 m/s 741 mmHg 69%
    15:00 +25°C° 0.3 mm 3 m/s 741 mmHg 68%
    16:00 +25°C° 0 mm 3 m/s 741 mmHg 67%
    17:00 +25°C° 0 mm 2 m/s 741 mmHg 66%
    18:00 +26°C° 0 mm 2 m/s 741 mmHg 64%
    19:00 +24°C° 0 mm 1 m/s 741 mmHg 68%
    20:00 +22°C° 0 mm 1 m/s 741 mmHg 72%
    21:00 +20°C° 0 mm 1 m/s 741 mmHg 76%
    22:00 +20°C° 0 mm 1 m/s 742 mmHg 77%
    23:00 +19°C° 0 mm 1 m/s 742 mmHg 78%

    19 Juin, Mercredi

    Heure Température Précipitation Vent Pression Humidité
    00:00 +17°C° 0 mm 2 m/s 742 mmHg 79%
    01:00 +17°C° 0 mm 2 m/s 742 mmHg 81%
    02:00 +17°C° 0 mm 2 m/s 742 mmHg 83%
    03:00 +16°C° 0 mm 2 m/s 742 mmHg 84%
    04:00 +16°C° 0 mm 3 m/s 743 mmHg 83%
    05:00 +17°C° 0 mm 3 m/s 743 mmHg 82%
    06:00 +17°C° 0 mm 3 m/s 743 mmHg 81%
    07:00 +18°C° 0 mm 3 m/s 743 mmHg 76%
    08:00 +20°C° 0 mm 3 m/s 743 mmHg 71%
    09:00 +21°C° 0 mm 3 m/s 744 mmHg 66%
    10:00 +22°C° 0 mm 3 m/s 744 mmHg 62%
    11:00 +24°C° 0 mm 3 m/s 744 mmHg 58%
    12:00 +25°C° 0 mm 3 m/s 744 mmHg 54%
    13:00 +26°C° 0 mm 3 m/s 744 mmHg 54%
    14:00 +26°C° 0 mm 3 m/s 744 mmHg 54%
    15:00 +26°C° 0 mm 3 m/s 744 mmHg 54%
    16:00 +26°C° 0 mm 2 m/s 744 mmHg 57%
    17:00 +26°C° 0 mm 2 m/s 744 mmHg 60%
    18:00 +26°C° 0 mm 2 m/s 744 mmHg 64%
    19:00 +24°C° 0 mm 1 m/s 744 mmHg 67%
    20:00 +22°C° 0 mm 1 m/s 744 mmHg 71%
    21:00 +18°C° 0 mm 0 m/s 744 mmHg 74%
    22:00 +20°C° 0 mm 1 m/s 744 mmHg 74%
    23:00 +19°C° 0 mm 1 m/s 744 mmHg 74%

    20 Juin, Jeudi

    Heure Température Précipitation Vent Pression Humidité
    00:00 +19°C° 0 mm 1 m/s 744 mmHg 74%
    01:00 +18°C° 0 mm 1 m/s 744 mmHg 77%
    02:00 +16°C° 0 mm 1 m/s 745 mmHg 79%
    03:00 +16°C° 0 mm 1 m/s 745 mmHg 82%
    04:00 +18°C° 0 mm 1 m/s 745 mmHg 81%
    05:00 +19°C° 0 mm 1 m/s 745 mmHg 80%
    06:00 +20°C° 0 mm 1 m/s 745 mmHg 80%
    07:00 +21°C° 0 mm 1 m/s 745 mmHg 74%
    08:00 +23°C° 0 mm 1 m/s 745 mmHg 69%
    09:00 +22°C° 0 mm 0 m/s 745 mmHg 64%
    10:00 +25°C° 0 mm 1 m/s 745 mmHg 59%
    11:00 +26°C° 0 mm 1 m/s 745 mmHg 54%
    12:00 +28°C° 0 mm 1 m/s 746 mmHg 49%
    13:00 +28°C° 0 mm 1 m/s 745 mmHg 47%
    14:00 +28°C° 0 mm 1 m/s 745 mmHg 46%
    15:00 +28°C° 0 mm 1 m/s 745 mmHg 45%
    16:00 +28°C° 0 mm 1 m/s 745 mmHg 49%
    17:00 +28°C° 0 mm 1 m/s 745 mmHg 53%
    18:00 +28°C° 0 mm 1 m/s 745 mmHg 58%
    19:00 +26°C° 0 mm 1 m/s 745 mmHg 62%
    20:00 +24°C° 0 mm 2 m/s 745 mmHg 66%
    21:00 +21°C° 0 mm 2 m/s 745 mmHg 70%
    22:00 +20°C° 0 mm 2 m/s 745 mmHg 71%
    23:00 +19°C° 0 mm 2 m/s 745 mmHg 71%

    21 Juin, Vendredi

    Heure Température Précipitation Vent Pression Humidité
    00:00 +18°C° 0 mm 2 m/s 745 mmHg 72%
    01:00 +18°C° 0 mm 2 m/s 745 mmHg 74%
    02:00 +18°C° 0 mm 1 m/s 745 mmHg 76%
    03:00 +18°C° 0 mm 1 m/s 745 mmHg 77%
    04:00 +19°C° 0 mm 1 m/s 745 mmHg 78%
    05:00 +19°C° 0 mm 1 m/s 745 mmHg 79%
    06:00 +20°C° 0 mm 1 m/s 745 mmHg 80%
    07:00 +20°C° 0 mm 2 m/s 745 mmHg 76%
    08:00 +23°C° 0 mm 2 m/s 745 mmHg 72%
    09:00 +25°C° 0 mm 2 m/s 746 mmHg 68%
    10:00 +25°C° 0 mm 3 m/s 745 mmHg 64%
    11:00 +26°C° 0 mm 3 m/s 745 mmHg 60%
    12:00 +27°C° 0 mm 4 m/s 745 mmHg 56%
    13:00 +27°C° 0 mm 4 m/s 745 mmHg 57%
    14:00 +27°C° 0 mm 4 m/s 745 mmHg 58%
    15:00 +27°C° 0 mm 4 m/s 744 mmHg 59%
    16:00 +27°C° 0 mm 4 m/s 744 mmHg 62%
    17:00 +27°C° 0 mm 4 m/s 744 mmHg 66%
    18:00 +27°C° 0 mm 3 m/s 744 mmHg 69%
    19:00 +25°C° 0 mm 3 m/s 744 mmHg 73%
    20:00 +24°C° 0 mm 3 m/s 744 mmHg 76%
    21:00 +21°C° 0 mm 3 m/s 744 mmHg 79%
    22:00 +20°C° 0 mm 3 m/s 744 mmHg 80%
    23:00 +20°C° 0 mm 3 m/s 744 mmHg 81%
    Voir plus